Theta_e
277 276 277 276 276 276 276 276 275 275 275 275 275 275 275 276 275 275 275 275 275 275 275 275 275 274 274 275 274 274 274 274 274 274 274 274 274 274 274 274 273 273 274 274 274 274 275 275 275 276 276 276 277 277 278 278 278 279 279 279 279 279 279 278 277 278 280 282 283 283 284 283 283 283 283 283 283 284 286 285 285 284 285 285 286
277 276 276 276 276 275 275 275 274 274 274 274 275 275 275 275 276 275 275 275 275 274 274 274 274 274 274 274 274 274 274 274 274 274 273 274 273 275 274 273 273 273 273 273 273 274 274 274 274 275 275 276 277 277 277 277 277 278 278 278 278 279 279 278 278 278 277 280 280 282 282 283 282 284 282 283 282 283 283 284 284 284 284 284 284
276 276 276 275 275 274 274 275 274 274 274 274 274 274 275 275 275 274 275 274 274 274 274 274 274 273 273 273 273 273 273 273 273 273 273 273 273 273 273 273 273 273 273 273 273 274 274 274 274 275 276 275 275 276 276 276 277 277 277 278 278 278 279 279 278 277 277 278 280 280 281 282 281 282 282 283 283 283 282 283 284 284 284 284 284
276 276 275 275 275 274 274 274 274 274 274 274 274 274 274 274 275 274 274 274 274 274 273 273 273 273 273 272 272 272 273 273 273 273 273 273 272 272 273 273 273 273 273 273 273 274 274 274 274 274 275 274 275 275 276 276 276 276 277 277 278 278 278 279 279 278 278 277 279 279 280 280 281 282 282 282 282 282 282 283 282 283 283 284 284
276 275 275 275 275 274 275 274 274 274 274 274 274 274 274 274 274 274 273 273 273 273 273 273 272 272 273 272 272 272 272 272 272 272 272 272 272 272 272 272 273 273 273 273 275 274 274 274 274 275 275 274 274 275 275 275 275 276 276 276 277 277 278 278 278 279 278 277 278 280 280 280 281 282 282 281 282 282 281 281 282 282 282 283 283
275 275 275 275 275 274 274 274 274 274 274 274 274 274 274 273 273 274 273 272 272 273 272 271 272 271 271 271 271 271 272 272 271 271 271 272 272 272 272 273 273 273 274 274 274 274 274 274 274 275 274 274 274 275 275 274 275 275 275 275 276 277 277 277 278 278 278 277 278 277 279 279 279 280 281 281 280 280 281 281 281 281 281 281 282
276 275 275 275 275 275 274 274 274 274 274 274 273 273 273 273 272 272 272 271 271 271 271 271 271 271 271 271 271 271 271 271 271 271 271 271 272 272 273 273 273 274 274 274 274 274 274 274 274 274 274 274 274 274 274 274 274 274 275 275 276 276 276 277 277 277 277 277 277 278 278 279 279 278 280 280 280 280 280 280 280 281 280 281 282
276 276 275 275 275 275 274 274 274 274 274 273 273 273 273 272 271 271 271 270 270 270 270 270 270 270 270 270 270 270 270 270 270 270 271 272 272 273 273 273 273 273 273 273 273 273 273 273 274 274 274 274 274 274 275 274 275 275 276 277 276 276 276 276 276 276 276 276 276 277 278 277 278 278 279 278 278 279 279 279 279 280 280 280 281
276 276 275 275 275 275 275 274 274 273 273 273 272 271 271 270 270 269 269 269 270 269 270 270 269 269 269 269 269 269 269 269 270 270 272 272 273 272 272 272 272 272 272 272 272 272 272 273 273 273 274 276 277 277 277 278 276 275 276 277 277 277 276 276 275 276 276 277 277 278 277 277 277 277 277 277 277 278 280 279 279 280 281 280 281
276 276 275 275 275 274 274 273 273 272 272 271 270 269 269 268 268 268 268 267 267 268 267 268 267 267 267 267 267 268 268 268 270 274 275 273 273 273 272 272 272 272 271 271 271 271 272 272 273 274 275 275 276 276 277 277 278 277 276 276 276 276 275 275 275 276 276 276 276 277 276 276 277 277 277 278 279 279 278 278 278 279 280 280 281
276 275 276 274 274 273 272 272 271 270 270 269 267 267 268 266 265 266 266 266 266 266 266 267 266 266 266 266 266 266 267 267 271 274 275 276 274 273 272 272 272 271 271 270 270 271 271 272 271 272 272 272 271 273 275 275 276 276 276 277 277 275 275 275 275 276 276 276 277 277 277 277 278 279 279 279 279 278 278 279 279 279 278 277 277
276 275 275 273 273 272 271 270 269 268 267 266 266 265 265 264 264 264 264 264 264 264 265 265 265 265 265 265 265 265 265 268 271 273 274 275 276 274 273 272 271 271 271 271 270 270 270 270 270 270 269 269 270 270 271 273 274 274 275 275 276 277 277 275 273 273 273 273 274 275 276 276 278 279 279 280 279 279 279 279 279 278 278 278 278
275 274 273 272 271 270 269 267 266 265 265 264 264 264 263 264 262 262 262 262 263 263 264 264 264 264 264 264 264 264 264 268 270 273 274 275 276 275 273 272 271 270 270 270 270 269 269 268 268 268 269 271 270 269 269 269 272 273 274 275 275 275 276 277 277 274 274 272 272 272 273 274 274 276 279 280 282 280 280 279 279 279 279 279 279
273 273 271 270 269 268 266 264 264 264 264 263 263 262 262 262 262 262 262 263 263 262 261 262 263 262 263 263 263 263 263 266 271 273 274 274 275 275 272 271 270 270 269 269 268 268 268 267 267 267 268 268 268 268 268 269 269 270 270 270 271 272 275 276 276 277 276 274 272 271 273 274 273 275 276 278 277 277 279 279 280 279 279 279 280
272 271 269 268 266 265 266 264 263 263 263 262 261 261 261 261 262 262 261 262 262 261 261 261 261 261 261 261 262 262 262 268 271 272 273 274 275 274 271 270 269 268 268 268 268 268 268 267 267 267 267 268 268 269 269 269 269 269 270 270 271 271 272 272 272 272 273 274 274 274 274 275 275 275 276 276 276 277 278 278 280 281 281 282 281
271 269 268 266 265 265 263 262 262 262 263 261 260 262 261 260 260 260 260 260 259 260 260 259 260 260 260 260 260 260 262 267 270 271 273 273 274 271 269 268 267 267 268 268 268 268 268 268 267 267 267 268 270 273 273 271 270 269 269 270 270 271 272 274 276 277 276 275 275 275 276 276 279 278 278 279 279 280 281 281 280 279 278 278 278
269 268 266 265 264 264 264 262 261 261 261 261 259 260 261 259 259 259 259 260 260 259 259 259 259 259 259 259 260 260 260 264 269 271 272 273 272 269 268 267 267 267 267 268 268 268 268 268 268 268 268 268 271 273 274 274 270 270 269 269 270 271 271 273 276 278 278 278 279 279 280 280 281 281 282 283 280 280 279 278 278 280 278 276 277
267 266 265 263 264 263 263 261 260 260 259 259 259 261 260 259 258 258 259 259 259 258 259 259 258 258 259 259 259 259 260 263 268 270 271 272 271 269 268 267 266 267 267 268 268 268 268 270 270 268 268 268 272 274 276 274 272 271 271 270 270 270 271 272 273 273 277 278 278 278 279 279 279 280 280 280 280 280 276 274 275 276 275 277 277
265 265 264 263 263 262 260 260 260 259 258 259 258 258 258 257 258 257 257 257 258 258 258 258 258 258 258 259 262 262 260 262 266 268 270 271 270 269 268 267 267 267 267 267 268 268 268 269 271 271 271 272 275 276 277 275 272 272 272 271 270 270 271 272 271 271 272 272 272 273 274 275 275 274 275 278 279 278 276 275 276 275 274 275 276
265 264 263 262 261 260 259 259 259 257 259 257 257 257 257 256 257 257 256 256 257 257 257 257 257 257 258 258 258 259 259 259 261 268 270 271 272 270 269 267 266 266 267 267 267 267 268 268 270 273 275 276 276 277 277 277 274 273 272 271 270 270 273 272 272 272 272 272 272 273 273 274 274 274 274 274 275 275 275 275 275 274 273 273 275
263 263 262 260 259 259 258 257 256 257 257 256 258 257 256 258 257 255 256 256 256 256 256 256 257 257 258 258 258 259 259 259 261 268 270 271 272 271 268 268 268 267 267 267 268 267 267 268 269 272 275 276 276 277 277 277 277 273 273 272 272 273 275 273 273 276 274 274 274 274 274 274 274 274 274 274 274 275 275 276 276 276 275 275 275
262 261 260 259 258 256 255 256 256 255 255 255 255 255 256 255 255 254 255 255 255 255 255 256 256 257 257 258 258 258 260 263 262 266 269 270 272 273 270 269 270 269 269 269 270 269 269 270 270 272 275 276 276 277 277 277 277 274 274 277 278 278 275 275 274 274 273 273 272 272 271 271 271 271 272 273 274 275 275 275 276 276 276 276 275
260 260 258 257 256 255 255 255 255 254 255 255 254 254 255 254 254 253 254 254 254 255 255 255 256 256 257 257 257 258 258 259 264 264 268 270 272 272 273 272 274 272 270 269 269 269 270 271 271 274 275 276 277 277 278 278 277 275 278 278 278 278 277 274 273 272 270 270 269 269 269 269 269 270 271 271 273 274 275 275 275 276 276 277 278
259 257 256 255 255 255 255 254 254 253 253 253 253 253 253 253 253 253 254 254 254 255 255 255 255 255 255 256 257 258 259 259 263 267 267 270 272 273 274 274 274 271 271 270 271 271 271 270 271 275 276 276 277 278 277 277 276 277 278 278 278 277 274 272 271 270 270 269 268 268 268 268 269 269 269 271 271 272 273 274 274 275 275 276 277
256 255 254 254 253 253 252 252 251 252 252 253 253 253 253 252 254 252 253 254 254 254 254 254 254 254 255 256 257 258 260 261 262 265 270 271 272 273 273 274 274 275 271 271 271 271 273 276 277 277 277 277 277 278 276 276 276 277 277 277 276 273 272 271 270 269 268 267 267 267 267 268 269 270 271 271 272 273 273 273 273 274 275 276 277
254 253 251 252 251 251 252 252 252 253 252 253 252 252 252 253 253 254 253 254 254 254 254 254 254 254 255 256 258 260 262 264 265 265 267 269 270 271 273 274 274 274 274 273 275 276 276 276 276 276 276 275 273 272 271 272 276 277 277 276 272 271 269 268 268 267 266 267 267 267 268 269 269 270 271 272 271 271 271 271 271 271 272 272 273
255 253 253 252 252 251 252 252 252 252 252 252 252 253 253 253 253 254 253 253 253 253 254 254 254 255 256 258 260 262 263 264 265 266 267 267 268 268 269 270 273 274 272 271 272 271 272 273 273 275 275 275 275 275 274 274 272 271 270 269 269 269 268 267 267 267 267 267 267 268 269 269 271 271 270 271 271 271 272 272 271 271 271 272 272
254 253 250 250 252 251 251 255 255 253 253 252 252 252 252 253 253 254 253 254 253 254 254 255 256 257 258 260 261 262 262 264 266 267 267 268 269 270 271 271 271 271 271 271 271 272 272 273 272 270 269 269 270 270 270 269 269 269 268 268 268 269 270 271 272 270 270 270 270 270 270 270 270 270 271 271 271 271 272 271 271 270 271 272 271
253 250 250 250 251 253 253 252 252 252 252 251 251 253 253 253 254 255 256 256 256 256 256 257 259 260 261 261 261 262 265 266 267 271 270 273 271 271 270 271 271 271 273 275 273 271 269 268 267 267 267 266 265 265 265 265 265 266 267 267 267 268 268 268 268 268 269 269 269 269 269 269 269 270 270 270 270 271 272 271 272 271 272 272 271
251 251 251 250 250 251 252 251 250 252 252 252 252 252 257 262 261 259 259 263 267 268 268 263 263 263 264 267 268 267 266 268 272 273 273 273 274 274 274 275 275 274 274 274 271 267 266 265 265 264 263 262 262 263 264 264 265 265 266 268 267 267 268 268 269 269 270 270 270 270 269 270 270 270 270 270 270 271 272 273 271 272 272 272 272
252 252 251 251 253 252 251 251 252 251 251 252 251 253 253 255 262 265 266 266 267 268 269 271 271 272 269 267 269 272 272 272 272 272 273 273 273 274 274 274 274 273 272 268 266 264 262 260 260 260 261 261 261 262 263 263 263 264 264 265 265 266 267 268 268 269 269 270 270 270 270 270 270 270 270 270 271 271 271 273 273 273 272 272 272
254 253 253 252 254 255 253 253 252 252 252 253 252 252 252 252 253 260 263 265 266 267 268 269 270 270 271 270 268 267 269 271 271 272 272 273 273 273 272 272 271 270 270 268 261 259 259 258 258 259 260 260 261 261 262 262 262 262 262 263 264 265 266 266 268 269 269 269 270 270 271 271 271 271 271 271 271 271 271 271 272 272 273 273 274
254 252 252 253 253 254 254 253 253 253 252 252 252 251 252 252 252 253 256 261 264 265 266 267 267 268 268 268 269 269 269 270 271 271 272 272 271 270 270 269 268 268 267 261 257 257 257 257 257 258 259 259 260 260 260 260 260 261 262 262 262 264 265 266 268 268 269 270 271 271 271 271 271 271 271 271 271 270 271 271 272 273 274 274 275
253 252 253 253 253 252 253 253 253 253 253 253 252 252 252 252 252 252 253 253 255 259 261 263 264 265 266 267 268 268 269 269 270 271 271 270 269 269 268 263 266 266 263 258 256 256 256 257 257 258 258 258 259 259 259 259 260 260 261 261 262 264 265 267 268 268 269 270 271 271 271 271 271 270 270 270 270 271 271 271 272 272 274 274 275
252 254 255 255 253 253 253 255 254 253 253 252 252 253 253 253 253 253 252 252 252 252 253 255 259 263 263 264 266 267 268 269 270 270 270 269 268 268 265 257 255 256 256 254 255 255 257 257 257 258 258 257 258 259 259 259 259 260 260 261 263 264 266 266 266 267 268 270 271 271 272 271 271 271 271 270 271 271 272 273 273 274 274 275 276
253 253 253 254 254 254 254 253 253 253 252 252 253 254 253 254 253 252 253 253 252 252 252 253 255 260 264 264 265 266 267 268 269 269 268 267 267 265 255 254 254 255 255 255 255 256 257 257 257 257 257 258 258 258 259 259 260 260 261 262 263 264 265 265 266 267 268 269 270 271 272 272 272 272 272 272 272 272 272 273 274 275 276 276 276
253 253 254 254 253 254 253 252 252 253 256 255 255 254 254 253 252 251 251 251 251 252 252 253 253 254 258 257 260 264 266 267 268 267 266 265 265 259 252 254 254 254 255 255 256 256 256 256 257 257 257 258 258 258 259 259 260 261 263 263 263 264 264 265 266 267 267 268 270 271 271 271 272 272 272 271 272 273 273 274 275 275 275 276 276
253 253 254 253 253 253 253 253 253 255 255 255 255 252 252 251 250 251 251 251 252 252 252 252 254 252 252 253 259 259 259 265 266 263 261 260 257 254 254 254 255 254 255 255 256 256 256 256 257 257 257 258 258 259 260 260 261 262 262 263 264 264 266 266 266 266 267 268 268 268 269 269 271 272 273 273 273 273 274 275 275 275 275 276 276
251 254 256 257 257 254 253 253 253 253 253 252 252 251 251 250 250 250 250 249 250 250 251 251 251 251 252 254 254 257 260 260 258 256 255 254 254 253 254 254 254 255 255 255 255 256 256 256 257 258 258 259 259 260 260 261 262 262 263 263 264 264 264 264 265 265 266 266 267 267 268 268 269 270 271 272 273 274 275 275 275 275 275 275 275
252 253 254 258 256 257 257 255 253 252 252 250 250 249 250 250 249 249 249 248 249 250 250 251 251 252 253 253 254 258 260 259 256 254 253 253 254 254 253 253 254 254 255 255 256 256 256 257 257 258 258 259 260 260 261 262 262 263 263 264 264 264 264 264 265 265 265 266 266 266 267 267 268 269 270 271 272 273 274 275 275 275 275 275 275
253 254 254 256 256 255 254 253 252 251 249 249 249 249 249 250 250 250 249 250 250 251 251 251 251 252 253 257 263 265 261 256 254 253 253 253 253 253 254 254 254 254 255 255 256 257 257 258 258 258 259 259 260 261 262 263 263 264 264 264 264 264 264 264 265 265 265 265 265 266 266 267 267 268 268 270 272 272 273 274 275 275 275 275 275
250 250 250 250 253 252 250 251 250 252 251 250 249 248 250 250 249 249 250 250 251 251 251 251 252 252 256 262 263 264 259 254 252 252 253 253 253 253 254 254 254 254 254 255 256 257 257 258 258 259 259 259 260 261 262 263 263 263 264 264 264 264 264 264 264 265 265 265 265 265 265 266 267 268 268 270 269 270 270 271 272 273 273 273 273
250 249 249 249 249 249 249 250 248 247 247 247 249 251 251 250 249 250 250 251 250 251 251 251 252 252 253 258 258 260 254 252 252 252 252 252 252 253 253 253 253 254 254 255 255 256 257 257 258 259 259 260 260 261 262 262 263 263 264 264 264 264 264 264 264 265 265 265 265 265 265 266 266 267 267 267 268 269 269 269 270 270 270 270 271
249 249 249 249 249 248 249 248 248 249 248 251 251 250 250 249 249 249 249 249 249 250 251 251 252 252 252 254 254 252 250 250 250 250 251 252 252 252 252 253 253 253 253 254 254 255 256 257 257 258 259 260 261 261 262 263 264 264 264 264 264 265 265 265 265 265 265 264 264 265 265 265 266 266 266 267 267 267 268 268 268 268 269 268 269
248 248 248 248 247 247 247 248 248 248 250 250 248 247 250 248 248 248 249 249 250 251 251 251 252 251 252 251 251 251 251 250 251 251 251 251 251 251 252 252 252 252 253 253 254 254 254 255 256 257 257 258 259 261 262 263 264 265 265 264 264 264 265 265 266 266 266 265 264 264 264 265 265 265 265 266 266 266 267 267 268 268 268 267 267
248 248 248 248 248 248 248 246 248 247 247 247 247 246 246 246 247 247 249 250 250 251 251 251 251 251 251 251 251 251 250 249 250 250 251 251 251 251 251 251 251 252 252 252 253 253 254 254 255 255 256 256 258 259 261 262 264 265 265 265 265 265 266 267 267 266 266 265 264 264 264 264 264 265 265 265 266 266 266 267 267 267 267 267 267
247 248 248 248 248 248 248 248 247 246 246 246 247 246 247 247 247 249 250 251 251 251 251 250 250 250 250 249 249 249 250 250 250 250 250 250 250 250 250 250 251 251 252 252 252 253 253 253 254 254 254 256 257 258 259 261 263 264 265 265 265 266 266 267 267 267 266 266 265 264 264 264 264 264 264 265 265 265 265 266 266 266 267 267 267
247 247 247 248 247 247 247 246 248 251 248 248 247 248 248 248 248 249 248 249 250 250 250 249 249 249 249 249 249 249 249 249 250 250 250 250 250 250 250 250 250 251 251 251 252 252 253 252 253 253 254 254 255 256 257 259 261 263 264 265 265 266 266 267 268 267 266 265 265 264 264 264 264 264 264 264 264 265 265 265 266 266 267 267 267
246 247 246 247 247 249 248 247 248 247 248 246 247 248 248 248 248 248 249 249 249 249 248 249 249 248 248 249 249 249 249 250 249 249 249 249 249 250 250 250 251 250 250 251 251 251 252 252 252 253 253 253 254 255 256 257 259 261 263 264 265 266 267 267 268 267 266 265 264 264 264 264 264 264 264 264 264 265 265 265 265 265 265 266 266
247 247 247 247 248 249 247 247 247 247 246 246 247 247 247 248 247 248 249 249 249 249 248 248 248 248 248 248 249 249 249 249 249 249 249 250 250 249 250 249 249 250 250 250 251 251 251 251 251 252 253 253 254 254 255 256 257 259 261 262 264 266 267 267 268 267 266 265 263 263 263 263 263 263 264 264 263 264 264 264 264 264 264 264 264
247 247 248 249 249 249 248 246 247 247 246 247 247 247 247 247 248 249 249 249 249 249 249 248 247 247 248 248 248 248 248 248 249 249 249 249 249 249 249 249 249 249 249 250 250 250 251 251 251 252 252 253 253 254 254 255 256 258 260 263 265 266 267 267 267 267 267 265 263 262 262 262 262 262 263 263 263 263 264 264 263 263 263 263 263
Wind_Speed
5 4 5 4 5 5 4 4 4 3 4 3 4 3 3 3 3 3 3 4 3 4 4 4 4 4 5 5 5 6 6 6 5 4 5 5 5 5 6 6 7 7 7 8 5 5 6 7 7 6 6 7 7 7 6 6 6 6 6 6 7 6 6 8 12 15 10 6 12 12 10 7 11 5 9 6 7 7 9 8 7 7 8 8 8
5 4 4 4 5 4 3 2 3 2 3 3 3 3 2 2 1 2 2 2 1 3 3 3 3 4 4 4 5 5 5 5 6 5 6 7 6 5 6 7 7 8 6 8 8 7 7 9 8 7 6 8 8 7 6 7 7 8 7 7 7 9 5 7 11 12 17 7 8 11 12 8 12 8 6 11 6 6 8 9 7 7 8 8 7
4 4 4 4 4 3 3 2 2 2 2 1 1 1 0 0 1 0 0 1 1 1 3 3 3 3 3 4 4 4 4 4 4 4 5 5 7 7 6 6 7 8 9 9 8 7 9 9 9 7 7 9 9 8 7 8 7 8 10 8 8 9 7 7 9 14 16 13 6 10 10 9 10 13 7 7 9 6 8 8 8 7 6 7 8
4 4 4 4 3 3 3 1 2 1 2 2 1 1 0 0 0 1 1 2 2 3 3 3 3 3 3 3 3 3 4 4 4 4 4 5 6 7 7 6 7 7 7 9 9 8 9 10 10 8 8 10 10 9 7 7 8 8 9 9 9 10 9 8 9 11 13 15 10 8 8 10 12 11 9 7 9 8 8 9 5 7 8 7 7
4 4 4 4 3 3 4 3 3 3 2 2 1 1 1 1 1 1 1 2 2 2 2 2 2 3 3 3 3 3 4 4 4 4 4 4 5 6 6 6 7 8 8 8 8 9 9 9 10 9 8 11 11 9 8 10 9 9 10 10 10 9 9 10 11 10 13 15 15 9 7 10 9 12 10 11 11 9 7 8 8 8 8 7 7
4 4 4 5 4 4 4 3 4 3 3 2 1 1 1 1 1 1 1 2 1 1 2 2 3 3 3 3 3 3 3 4 4 5 5 4 5 6 6 7 7 8 8 8 8 7 8 10 10 9 10 10 12 11 9 11 11 11 12 11 11 10 11 12 11 12 13 15 14 14 9 10 10 9 10 9 9 12 11 9 6 6 7 8 8
5 5 5 5 5 5 4 5 4 3 3 2 2 2 2 2 2 2 2 3 3 4 3 3 3 3 4 3 4 4 5 4 5 4 5 5 6 7 7 7 8 8 8 8 9 9 9 10 10 10 10 11 12 12 11 11 10 12 12 12 11 11 11 12 11 12 13 15 15 13 12 9 8 12 8 7 9 10 12 12 11 6 7 8 10
6 6 5 5 5 5 5 4 4 3 3 3 3 2 2 2 3 2 2 4 4 4 5 5 4 3 4 4 4 4 5 4 4 5 6 6 7 7 7 9 9 10 10 10 9 9 9 9 9 9 9 9 10 11 11 11 10 11 10 9 10 11 12 12 12 12 13 14 14 14 11 11 9 7 7 4 8 11 8 7 13 12 9 6 8
7 7 6 6 6 5 5 4 3 3 3 3 2 2 2 2 2 3 2 3 3 3 4 4 5 4 4 4 4 4 5 5 4 6 7 7 7 8 8 9 10 11 11 10 9 8 8 8 7 7 11 17 21 19 18 17 13 12 11 9 9 10 11 11 12 12 12 12 15 13 13 12 10 10 10 9 9 12 10 5 9 11 10 8 8
7 7 7 7 6 5 5 4 4 3 3 3 3 2 2 2 2 2 2 2 2 2 3 3 3 4 5 5 4 4 4 4 7 14 13 9 9 8 9 8 8 9 9 10 9 7 8 8 8 16 18 18 18 20 20 20 21 16 13 11 10 11 11 11 11 10 10 12 12 12 14 14 13 10 11 11 9 7 9 8 10 12 11 11 11
7 7 8 6 6 5 5 4 3 3 2 3 1 1 2 1 1 1 1 2 2 3 3 4 3 4 4 5 5 5 4 5 13 14 15 17 12 11 11 11 11 11 10 11 11 11 11 11 10 11 13 14 13 19 20 21 21 23 25 25 21 16 13 13 12 10 10 11 11 12 14 17 16 11 11 10 10 9 9 9 10 10 11 10 14
8 7 6 6 6 6 4 4 3 3 2 2 1 0 0 1 1 1 1 2 3 2 3 3 4 4 4 4 5 5 5 9 15 15 16 16 15 11 11 11 11 10 11 12 12 12 13 12 11 10 10 11 12 11 14 19 21 22 22 22 22 23 23 18 16 14 13 14 14 15 16 16 15 11 8 8 9 8 8 9 11 11 12 11 10
7 6 6 7 6 5 4 4 3 2 1 1 1 1 2 3 3 3 3 3 2 3 4 5 4 4 5 6 6 6 6 11 15 17 17 17 17 15 10 10 11 11 11 12 12 12 11 12 12 11 9 17 13 12 12 13 17 21 21 21 21 20 20 22 22 17 14 15 16 20 18 17 18 16 12 9 8 11 10 11 10 10 11 12 12
7 7 6 6 5 4 4 3 2 1 1 1 1 2 3 3 2 2 3 3 3 3 3 4 4 5 5 7 7 7 7 11 17 18 17 18 17 16 10 11 10 11 12 12 11 12 12 12 13 12 11 12 12 13 13 14 14 14 13 13 13 16 19 21 22 24 21 16 16 18 18 14 16 17 15 15 17 15 13 13 10 11 11 12 12
6 7 7 5 4 4 4 3 2 1 1 1 2 2 3 2 3 3 3 4 5 5 6 6 5 4 5 6 7 8 7 15 17 18 18 18 19 16 9 10 10 11 11 11 12 12 12 12 13 14 14 12 11 15 15 16 15 12 12 13 13 13 14 15 15 14 14 14 16 18 19 17 16 18 16 14 15 15 14 16 15 14 14 13 13
7 6 6 5 4 4 3 2 1 1 1 1 2 2 2 2 3 3 3 3 3 3 3 3 5 6 5 6 7 9 7 15 18 18 18 18 20 11 9 10 11 11 11 11 12 12 12 12 13 13 14 14 17 24 22 18 16 15 14 14 13 13 13 16 22 22 19 17 16 17 17 19 22 20 19 17 15 14 13 13 14 16 15 16 16
7 7 5 5 4 3 3 2 1 1 0 1 1 1 1 2 2 2 3 3 4 4 4 4 4 6 6 5 7 9 7 11 17 19 19 20 16 8 9 9 10 11 12 11 11 12 12 12 13 13 15 16 21 26 26 25 17 15 15 15 13 12 12 12 19 24 25 26 29 30 31 31 30 30 30 31 22 17 14 14 14 11 13 15 14
6 5 6 4 4 4 3 3 2 1 0 0 0 0 0 1 1 1 3 5 6 4 5 6 4 4 6 7 6 10 9 11 18 19 19 19 16 10 9 7 10 11 13 12 12 12 13 21 20 18 18 18 24 28 29 24 16 14 12 13 15 14 13 12 12 14 24 29 31 32 31 30 29 29 29 28 27 20 11 14 13 12 15 13 13
7 7 6 5 4 4 3 2 2 2 1 0 0 0 1 1 1 2 3 3 5 4 5 6 6 4 4 7 11 12 11 12 16 19 20 19 15 9 8 8 9 11 11 12 12 13 13 14 23 22 21 23 31 29 30 24 16 14 14 14 14 13 11 11 13 14 12 13 14 16 17 21 20 16 15 26 27 22 14 14 13 12 13 14 14
5 5 5 5 4 3 3 2 2 1 1 0 0 0 1 1 2 2 3 3 5 5 5 6 8 8 5 6 7 7 10 10 10 20 19 19 19 12 8 7 9 12 13 12 12 9 9 10 14 24 28 30 30 31 29 29 21 15 12 11 12 15 12 14 15 14 15 14 15 13 14 13 14 14 13 13 14 14 14 12 12 10 14 15 16
6 6 5 4 3 3 2 2 1 1 1 0 0 0 1 2 2 3 4 4 4 6 6 6 8 9 6 6 7 7 7 11 11 19 20 20 21 17 9 9 10 11 12 12 10 9 8 7 7 17 27 28 29 30 30 31 29 19 15 12 13 17 20 14 14 19 15 13 13 11 10 10 10 10 10 11 10 10 11 14 13 12 12 14 14
6 6 4 4 3 2 1 1 1 1 1 1 2 2 1 1 2 3 3 4 6 7 6 6 7 9 7 6 6 8 8 14 12 16 20 21 20 22 12 11 13 12 13 11 10 10 11 10 9 16 27 29 30 30 32 32 32 19 17 25 31 31 22 14 12 10 10 10 10 10 9 8 8 8 10 11 11 11 12 11 12 13 14 14 15
5 4 4 3 2 1 0 1 1 1 1 1 1 3 2 3 3 3 4 5 6 8 6 6 7 9 9 6 5 7 7 9 16 15 19 21 22 21 22 18 23 15 12 13 11 11 9 11 13 26 31 32 31 31 32 35 27 19 29 30 28 30 25 13 10 9 9 9 9 10 10 9 9 11 11 10 10 11 11 10 12 13 15 14 16
4 4 3 2 1 0 0 0 0 0 0 1 1 2 3 3 3 3 4 4 6 8 6 5 7 8 10 10 6 5 7 8 12 17 17 21 21 22 23 24 24 16 14 12 11 12 13 13 16 29 31 31 32 31 30 27 21 28 28 29 29 26 14 12 10 10 11 10 10 11 11 9 10 11 10 11 10 10 11 11 12 15 16 15 16
4 4 3 2 1 0 0 0 1 1 1 0 1 2 3 2 4 2 3 4 5 7 7 5 7 8 9 10 10 7 7 8 7 11 18 20 22 24 24 25 24 25 17 13 13 13 20 31 33 32 31 32 33 32 26 25 27 27 29 29 27 12 10 10 11 10 11 11 11 11 12 11 11 13 11 11 12 13 12 11 13 13 13 14 13
4 4 2 1 1 0 0 1 1 1 1 1 2 2 3 3 4 4 4 5 5 6 7 6 7 7 9 9 9 9 8 8 9 9 10 14 17 22 25 24 24 24 24 20 27 32 31 30 34 33 29 25 18 13 11 12 24 28 28 26 14 11 10 10 11 10 12 11 13 12 13 11 10 12 11 11 10 12 11 11 11 11 10 11 12
4 3 3 2 1 0 0 1 2 2 1 2 2 2 3 3 3 4 4 6 6 5 7 7 7 7 9 9 9 9 9 9 10 9 8 9 10 12 13 13 18 21 15 11 15 16 21 22 16 21 20 27 27 25 23 22 16 13 11 10 9 9 9 8 9 11 13 13 13 13 11 12 12 12 11 11 12 11 10 12 12 12 11 10 12
5 4 3 2 1 1 1 1 2 2 3 2 3 3 3 3 4 6 5 6 6 7 6 7 8 8 9 9 9 11 11 10 8 9 10 10 10 9 10 11 10 9 11 12 12 13 11 13 17 13 13 12 10 7 7 7 9 9 9 9 9 10 14 21 20 14 13 12 12 13 13 12 11 11 10 11 12 10 9 10 11 13 12 12 12
4 3 2 2 2 1 1 2 2 3 3 3 4 4 4 4 6 7 6 5 7 8 9 9 9 10 9 8 8 8 6 9 8 13 15 20 17 14 11 10 11 11 15 24 18 11 10 11 9 9 7 9 10 9 9 9 8 10 11 10 9 9 9 8 9 10 11 12 13 12 13 12 11 11 10 12 12 11 10 11 12 12 11 11 14
4 4 3 3 2 1 2 2 2 3 4 4 5 5 7 12 9 8 7 10 17 19 17 10 9 9 9 8 7 9 10 10 20 25 24 24 24 25 24 25 24 20 23 27 18 11 9 8 8 9 10 10 10 11 11 9 9 8 9 11 11 9 10 9 10 10 10 11 11 12 11 13 12 12 11 12 11 11 12 13 11 11 10 12 12
4 4 3 4 4 3 3 3 3 4 4 4 3 5 6 5 12 17 15 15 16 17 19 22 23 22 14 10 10 18 21 23 23 22 23 23 24 24 24 23 25 24 24 17 10 7 9 9 9 9 10 10 10 10 12 11 13 9 11 11 10 11 11 10 8 11 11 12 11 13 12 11 12 12 12 10 11 11 10 9 10 12 13 13 12
6 6 5 4 4 4 4 4 3 4 4 3 4 4 5 8 7 8 12 12 13 16 18 19 20 19 17 14 11 9 15 19 21 21 22 23 22 22 22 22 22 22 21 16 7 7 7 8 8 9 9 10 11 11 11 10 10 11 9 11 11 11 11 11 11 10 12 13 13 13 12 12 10 11 10 10 10 10 11 11 11 11 11 11 14
6 5 5 4 4 5 4 4 4 4 4 4 4 3 4 5 9 9 6 11 15 14 15 16 14 13 14 16 17 17 16 17 20 20 20 19 19 18 20 20 20 19 15 8 5 7 6 7 8 8 8 9 10 10 10 9 9 9 12 10 12 11 12 13 17 14 13 11 13 11 11 10 11 10 11 11 11 11 11 11 11 10 12 13 14
6 5 6 6 6 5 5 4 5 4 4 4 4 4 5 5 5 6 9 8 9 12 10 8 10 13 13 16 18 16 16 17 18 18 17 17 17 17 17 14 17 14 11 6 6 7 8 8 8 8 8 9 9 9 9 9 10 10 10 11 10 11 12 13 10 13 11 13 11 11 11 10 10 10 10 10 9 10 11 13 11 12 11 12 13
5 6 7 6 5 5 5 4 5 4 4 4 4 5 5 5 5 5 4 6 7 7 9 12 11 10 11 12 13 15 16 17 16 15 16 15 16 17 16 10 11 9 7 3 4 5 6 7 8 9 8 9 9 9 10 11 10 11 11 12 11 12 10 12 13 12 11 12 11 10 10 11 11 10 10 11 10 10 11 10 11 12 12 11 13
6 5 6 6 6 5 5 5 5 5 5 5 5 5 5 5 6 4 5 5 6 7 8 7 8 13 17 13 13 15 16 16 15 14 14 15 15 15 8 8 8 7 8 7 6 6 6 6 7 9 9 9 9 9 9 10 10 10 10 11 12 12 12 12 13 12 11 12 13 13 13 11 11 11 10 9 12 12 11 11 10 11 11 11 10
6 5 5 5 5 5 5 5 4 5 6 5 5 5 5 5 5 4 5 5 6 5 7 8 9 10 8 4 8 15 18 16 14 13 14 14 15 7 3 5 6 8 8 8 8 8 8 7 7 8 9 9 9 9 9 9 9 10 11 11 10 11 10 12 13 13 14 12 11 11 13 13 12 11 11 11 11 11 11 11 11 12 11 12 12
5 5 5 3 4 4 4 4 5 7 6 5 5 4 5 4 4 4 5 5 5 5 7 7 6 6 9 10 10 8 12 15 14 10 9 11 9 6 6 5 5 6 7 7 7 8 9 9 8 8 9 9 9 10 10 10 10 10 10 10 10 10 19 17 16 14 14 12 11 11 12 13 12 12 12 11 11 11 11 10 10 10 10 11 10
3 5 8 8 6 5 5 5 5 5 5 5 4 5 6 5 4 5 5 4 5 5 6 6 6 7 8 7 7 10 10 7 7 7 7 6 6 6 6 6 5 6 5 6 7 7 8 9 9 9 9 9 10 10 10 10 10 10 10 10 10 9 12 9 11 11 11 10 11 11 11 12 12 12 12 12 13 12 11 11 10 10 9 9 9
4 4 6 10 7 6 5 5 5 4 6 4 5 4 4 5 5 4 4 4 5 5 5 6 7 7 6 6 7 7 5 6 6 7 7 6 6 6 5 5 6 6 7 7 7 7 8 8 9 9 10 10 10 10 10 10 10 9 9 9 10 11 11 10 10 11 11 12 11 11 11 12 12 11 11 11 11 12 12 11 10 9 9 9 8
5 4 4 6 7 5 5 5 6 6 5 5 6 5 6 6 5 6 4 5 5 5 6 7 7 7 6 9 15 14 6 5 6 7 7 7 6 6 6 5 6 7 7 7 8 8 8 9 9 9 9 10 10 10 10 10 10 9 9 10 9 10 10 10 10 11 12 12 12 12 12 13 12 11 12 12 14 12 11 11 10 9 8 8 7
5 4 4 4 5 4 4 7 7 6 5 6 6 5 6 6 5 5 6 4 6 6 6 6 6 6 9 17 14 13 7 4 5 7 7 7 7 7 6 6 5 6 7 8 8 9 10 10 9 9 10 10 10 11 11 10 10 10 11 10 11 11 11 11 11 12 12 12 12 12 12 12 13 12 13 12 11 10 9 9 9 8 7 5 4
5 5 5 5 5 5 6 6 4 5 4 5 6 5 6 6 5 6 5 6 5 5 5 6 6 5 6 10 10 11 4 5 5 6 6 7 7 7 7 7 6 6 7 7 7 8 9 9 10 9 10 10 10 10 11 11 11 11 11 12 12 12 11 11 11 12 12 12 12 13 14 13 12 11 11 10 10 10 9 9 8 7 6 4 1
5 5 6 5 6 4 5 4 5 6 5 6 6 7 6 6 5 4 5 5 5 5 5 6 6 6 6 6 6 5 5 5 5 5 6 7 7 7 7 7 7 7 7 7 7 7 8 9 10 10 9 9 10 11 10 10 10 10 11 12 12 12 11 11 12 12 12 12 12 12 12 12 11 10 10 10 10 9 9 8 7 6 4 4 1
5 5 5 5 4 5 5 4 5 6 7 7 5 5 6 4 5 5 5 5 6 6 5 5 5 5 7 6 5 5 6 5 6 6 6 6 7 7 7 7 7 7 7 8 7 7 7 8 9 10 11 10 10 10 10 11 10 9 9 11 12 12 12 12 12 11 11 12 10 9 10 10 11 10 10 9 9 8 7 7 6 5 5 4 3
5 5 6 5 5 6 6 5 7 6 6 7 6 6 6 4 5 5 6 6 6 5 5 5 5 5 6 6 5 6 6 5 6 5 7 6 7 7 6 6 6 7 7 7 7 7 7 7 8 9 10 10 11 11 11 11 11 10 10 10 11 11 12 12 11 11 11 11 10 10 9 10 10 9 10 9 8 7 7 7 6 5 5 4 3
4 5 5 5 5 6 6 6 4 5 5 6 6 5 6 6 6 5 6 7 6 6 5 5 5 5 5 5 6 6 6 5 6 6 7 7 7 7 7 6 6 7 7 7 6 7 7 7 7 8 9 9 10 12 12 11 11 11 10 10 10 12 13 13 11 10 10 10 10 9 8 7 8 8 10 9 8 7 7 6 6 6 5 4 4
5 5 5 5 4 4 5 4 6 6 7 7 5 6 6 6 5 6 6 6 6 6 5 5 5 5 5 6 6 6 6 6 6 7 6 7 7 7 6 6 6 7 7 7 7 6 6 7 7 8 8 9 10 10 10 11 11 12 11 11 11 14 19 20 12 11 10 10 9 9 9 9 8 9 8 9 8 8 7 7 7 6 6 5 5
4 5 5 4 4 5 6 6 7 6 7 6 5 6 6 5 5 5 5 5 5 5 5 5 6 5 5 6 6 6 6 7 6 6 6 7 7 6 6 6 7 7 7 7 8 7 7 7 8 8 8 8 8 9 10 11 12 12 12 12 16 25 24 23 16 11 14 10 8 9 9 8 9 9 9 9 9 7 7 7 7 7 6 6 6
4 4 4 4 6 6 6 6 6 6 6 6 6 6 5 6 5 6 5 5 5 5 5 5 5 6 5 6 7 6 5 6 6 6 7 7 7 6 6 6 6 6 6 7 8 8 7 7 8 8 8 8 8 9 9 9 10 12 12 14 23 25 23 23 19 19 15 9 9 8 8 8 8 8 8 8 8 8 8 7 7 7 6 6 6
5 4 5 5 5 5 6 5 6 6 6 6 6 6 6 6 6 5 5 5 5 6 5 5 5 5 5 6 6 6 6 6 6 6 7 7 7 6 6 7 7 7 7 7 7 7 7 7 8 8 8 8 8 9 9 9 9 11 17 25 24 24 25 23 16 18 22 14 8 8 8 9 8 8 8 8 8 8 9 8 8 7 6 6 6
Wind_Direction
111 117 107 98 94 91 85 79 81 83 80 82 92 78 50 45 32 14 7 11 5 3 7 356 356 357 352 354 355 350 356 349 350 348 344 340 339 331 328 333 329 324 323 323 326 318 312 305 307 302 294 294 293 297 300 294 289 274 268 262 265 250 242 253 266 277 273 220 273 288 293 303 290 250 271 254 265 265 264 266 266 261 258 255 256
123 124 110 117 123 130 138 130 119 92 87 64 68 56 36 37 21 14 24 326 358 340 347 341 350 347 353 345 347 348 342 343 336 346 339 335 333 331 329 326 321 316 320 316 323 324 316 313 311 312 303 295 297 298 293 296 297 295 287 275 266 274 234 254 269 272 282 265 269 282 288 286 286 280 258 286 265 258 263 267 261 249 256 257 256
140 140 143 144 154 156 133 118 77 71 90 102 96 172 186 207 189 135 161 313 325 351 341 350 345 350 348 339 340 339 334 326 325 328 322 319 317 318 318 317 314 315 316 312 314 313 312 308 307 314 313 308 304 302 304 298 294 288 286 282 280 275 269 243 266 278 281 280 254 273 282 288 279 291 281 268 277 264 272 266 261 262 253 253 255
156 150 148 153 144 132 149 130 127 152 159 188 172 190 185 175 128 50 23 2 359 340 346 336 346 342 337 332 331 327 322 316 316 313 308 308 306 306 309 308 305 301 299 302 306 305 302 303 302 308 307 301 301 306 306 297 297 293 288 285 279 281 278 270 256 267 280 286 275 260 273 281 285 281 287 276 280 276 258 270 258 258 258 253 250
160 167 157 165 166 165 182 175 170 183 186 186 177 156 79 56 38 35 43 4 339 340 340 337 342 337 338 328 325 322 314 312 311 306 300 294 292 295 298 298 297 295 293 293 294 297 296 293 297 303 303 298 297 299 301 300 295 292 289 289 288 285 280 274 273 268 277 278 282 270 264 265 269 281 288 290 288 277 266 258 261 253 256 246 252
180 168 176 175 189 192 198 187 192 192 189 181 167 138 105 79 70 17 47 355 351 349 360 357 347 339 333 326 321 316 318 316 310 307 302 303 299 295 293 292 292 292 293 292 291 292 293 294 297 300 299 296 295 296 295 292 293 290 289 287 286 285 283 280 273 273 271 275 278 285 265 267 273 261 275 277 282 289 284 269 258 248 249 259 244
186 187 187 189 189 200 194 196 194 192 184 174 159 139 117 105 66 38 7 8 5 0 359 358 349 348 332 337 333 332 327 320 316 309 311 307 305 303 305 302 298 298 297 298 298 296 292 292 293 296 294 292 293 295 296 290 284 281 279 284 285 285 282 281 282 278 276 277 277 271 277 266 258 273 265 260 264 264 278 293 283 250 238 239 259
191 196 191 197 198 197 195 197 192 189 173 160 145 130 102 70 47 21 15 8 11 360 353 348 340 341 331 340 333 332 324 323 317 316 306 307 307 308 309 308 307 304 300 297 295 295 294 293 293 293 293 290 290 291 291 291 288 282 280 279 281 282 281 284 283 280 278 278 276 283 273 274 267 259 275 279 279 272 246 254 277 283 266 237 236
197 199 195 200 203 190 191 194 185 172 164 138 107 82 68 59 38 21 17 11 5 345 346 337 331 334 338 336 334 332 330 322 331 316 315 313 311 307 310 305 302 300 299 298 297 295 290 287 287 290 294 295 294 292 290 288 288 289 286 283 282 281 281 280 281 281 279 278 281 280 281 276 267 269 267 257 248 261 275 236 262 268 278 276 257
196 198 200 205 192 183 185 179 168 155 124 104 93 70 63 42 28 22 20 7 343 336 333 324 326 332 331 328 331 327 319 324 311 315 318 316 313 310 304 299 298 299 301 302 300 297 294 297 298 304 305 304 303 301 299 297 294 290 291 291 284 276 272 272 272 272 276 280 280 286 283 276 271 259 260 256 257 262 271 271 267 275 278 273 274
200 194 206 196 180 175 173 170 140 129 120 97 92 63 45 34 35 36 13 351 343 340 327 330 341 328 325 324 323 321 318 312 313 315 316 316 315 310 308 306 306 305 302 302 304 307 308 308 306 305 305 304 302 299 297 296 294 293 290 288 286 285 289 286 281 281 280 273 275 272 271 276 273 266 261 265 258 256 261 267 269 275 272 279 281
199 202 196 177 174 174 170 150 135 134 116 94 98 89 85 54 50 36 7 360 344 331 334 337 326 325 321 320 316 314 313 313 314 313 314 315 314 310 306 303 304 302 302 303 303 305 306 307 304 305 300 298 295 295 295 292 291 289 289 288 287 285 282 282 288 289 287 290 287 281 283 280 287 286 278 265 267 266 259 259 262 264 270 266 262
195 192 181 172 173 166 150 145 141 124 101 108 82 40 43 27 23 10 7 345 328 342 334 331 324 327 323 321 319 315 309 314 311 311 312 313 313 312 303 302 300 300 301 301 301 302 303 302 301 297 293 296 296 294 291 288 287 286 288 291 291 288 286 284 281 281 285 280 278 279 273 283 286 284 287 301 311 291 282 266 259 258 260 265 264
183 183 171 173 166 153 140 131 125 120 105 69 40 31 35 23 9 358 346 341 346 332 333 331 328 328 327 319 313 312 307 308 309 310 313 312 312 311 303 303 299 297 299 298 297 296 295 295 296 294 292 293 292 292 288 286 286 287 288 289 289 289 290 290 288 284 280 276 277 277 281 282 281 289 294 301 295 287 283 278 275 269 266 264 271
182 173 170 160 146 140 131 126 120 124 73 55 30 35 29 10 8 4 359 341 340 334 332 329 323 320 316 312 306 304 303 306 308 310 311 312 312 315 309 305 297 292 290 290 292 293 292 290 289 289 290 288 288 287 287 288 288 285 281 280 283 287 287 285 282 281 278 274 271 271 276 275 271 272 273 266 260 262 267 274 279 279 276 275 268
176 162 162 159 149 144 133 124 123 96 67 29 37 14 22 12 0 348 338 323 303 306 301 299 306 309 306 305 302 299 298 306 306 308 309 313 315 315 309 298 294 290 289 290 291 292 289 286 287 287 288 289 288 288 288 288 287 285 282 277 271 268 268 277 281 278 275 273 269 270 272 276 279 280 281 282 282 281 276 269 263 260 262 260 259
178 170 160 155 146 139 129 130 132 111 93 40 26 357 8 356 357 340 329 313 311 308 296 295 294 298 300 298 299 295 295 301 303 307 311 313 315 299 300 297 293 292 288 286 287 290 289 285 285 288 289 287 287 288 289 289 286 278 271 269 267 265 266 264 270 276 281 282 283 282 283 285 287 286 284 283 282 283 286 285 276 272 259 257 254
170 161 158 155 149 139 134 136 140 153 161 161 175 324 36 341 305 336 323 314 309 300 301 299 285 285 292 294 291 294 294 300 305 307 310 310 308 303 299 284 285 288 289 285 286 285 286 287 287 287 286 284 286 287 288 289 282 276 270 271 272 269 264 259 260 262 266 272 274 276 277 279 282 284 286 288 289 290 290 281 285 292 285 283 278
169 164 158 149 139 141 140 142 153 166 172 161 143 351 324 311 303 304 283 286 288 299 300 299 295 285 277 284 295 297 294 298 302 304 305 306 305 291 286 280 277 284 290 290 282 279 274 270 277 283 286 288 290 290 290 290 286 282 279 274 270 264 262 260 262 267 265 261 259 258 261 263 265 265 263 271 276 277 274 277 288 284 282 274 271
160 140 135 138 140 140 148 151 167 155 148 114 143 238 297 335 316 312 305 293 296 302 296 295 295 293 289 286 285 283 289 289 294 300 302 302 302 299 287 282 285 289 286 278 281 262 240 242 260 280 289 291 291 290 289 287 283 277 271 267 265 271 266 265 261 263 264 259 262 254 255 253 256 260 258 258 261 257 256 255 258 261 267 274 273
141 140 137 137 143 148 159 158 150 140 118 131 64 17 344 322 324 314 306 303 296 297 295 292 291 290 290 283 280 279 274 287 290 297 299 301 301 302 288 278 279 280 280 277 269 264 259 245 225 268 286 290 289 288 288 284 280 277 272 266 264 263 268 268 269 267 268 267 264 261 257 255 255 256 258 259 256 252 248 256 254 253 258 267 268
137 140 143 148 153 156 158 141 109 108 61 49 13 348 325 334 309 303 294 300 299 293 295 293 293 292 290 281 275 276 276 281 289 292 295 298 299 299 296 285 288 286 286 281 287 289 285 279 268 282 288 288 287 287 285 283 282 284 277 278 279 285 289 282 277 270 265 268 267 265 264 260 262 256 257 257 253 250 249 246 247 248 252 256 261
138 140 142 147 156 143 124 93 16 72 22 17 10 328 323 316 301 299 300 299 294 295 296 298 297 297 297 286 273 271 271 268 279 284 290 296 299 300 297 296 297 295 290 288 281 276 272 277 280 287 287 286 284 284 283 284 287 286 289 290 294 295 296 296 296 291 283 275 271 270 268 264 267 269 266 268 263 261 261 260 264 262 254 246 245
134 136 147 149 139 127 116 67 57 42 21 1 6 313 305 297 291 284 288 289 296 296 294 299 298 296 301 301 289 273 268 265 268 279 287 294 300 300 301 300 300 294 288 282 285 282 283 277 274 280 283 286 290 293 293 298 298 298 298 299 300 299 297 295 291 284 282 282 278 274 271 264 265 266 262 261 263 262 261 261 261 261 260 261 258
133 148 157 160 156 176 30 344 299 313 298 102 309 291 295 295 304 277 279 289 283 289 292 294 290 293 295 294 298 294 277 267 267 271 289 299 304 304 303 301 299 299 295 287 282 282 289 295 298 299 298 299 300 300 301 300 296 296 296 295 296 295 292 287 290 289 283 279 275 272 268 265 259 261 265 265 267 267 266 266 265 266 265 266 267
148 168 174 173 210 116 347 324 324 299 293 252 230 244 255 283 282 292 279 275 273 277 288 290 286 286 283 287 290 292 290 289 291 287 282 296 300 299 298 299 299 298 295 293 296 298 299 297 294 294 293 292 291 283 275 281 290 294 296 298 299 295 292 290 285 283 276 276 272 270 274 272 267 264 262 263 263 264 266 266 266 260 256 258 260
158 165 182 203 205 160 174 304 320 311 280 254 242 245 249 257 264 275 268 272 276 270 275 281 284 279 279 282 286 291 293 298 296 292 293 295 290 286 286 279 283 289 291 283 288 288 285 284 288 298 306 306 304 301 298 299 300 297 291 288 286 284 282 274 274 275 276 274 275 272 269 267 268 267 264 260 258 257 250 257 259 261 259 251 255
174 189 201 192 214 183 190 268 271 285 277 263 271 272 255 237 253 257 258 259 270 277 269 268 268 272 277 282 282 286 288 288 287 299 298 290 288 292 291 294 297 298 293 288 283 290 304 321 317 316 305 299 298 296 296 300 298 298 294 295 293 289 286 286 285 276 272 269 267 272 270 271 266 262 260 256 257 255 249 248 254 261 258 259 258
165 179 187 166 217 216 208 230 242 256 273 270 247 233 248 258 260 265 239 221 233 253 268 259 255 261 266 260 266 265 272 298 299 303 303 309 310 308 307 306 301 291 297 307 312 325 323 312 307 305 314 320 321 311 305 296 284 283 281 279 276 278 280 274 273 272 273 276 274 272 274 271 267 263 256 260 257 258 251 251 251 254 254 247 256
168 200 189 189 215 222 240 242 240 245 252 267 279 278 247 257 254 250 257 254 257 258 255 246 244 240 246 258 276 291 297 299 308 310 311 310 311 309 306 306 309 312 316 322 326 319 318 312 317 324 321 320 313 310 307 304 304 302 297 303 299 286 280 274 272 275 276 272 272 272 269 271 270 269 264 262 261 256 251 255 257 249 252 251 255
185 197 190 206 207 211 216 236 239 237 245 253 262 278 296 278 279 282 282 286 284 281 280 280 284 288 290 289 292 297 302 305 307 309 311 312 310 312 316 319 318 323 329 327 329 328 326 327 319 317 316 312 310 310 313 313 313 311 310 308 299 295 292 287 287 291 287 283 278 274 270 268 269 271 269 266 266 263 262 250 250 255 254 255 252
191 202 195 203 208 209 209 218 233 242 251 249 256 277 288 300 290 284 296 301 299 296 290 290 291 292 292 297 306 307 304 305 309 312 313 313 320 326 324 324 331 332 330 339 337 329 320 314 313 312 312 311 313 315 314 309 308 308 304 304 303 303 302 298 298 291 289 286 282 278 272 272 265 267 265 265 265 266 263 265 255 253 254 253 254
191 194 194 197 201 207 213 215 227 226 245 250 259 252 271 283 302 311 302 304 306 300 296 296 300 305 310 308 306 305 308 312 313 313 316 328 333 331 331 339 338 336 345 350 327 316 314 312 308 306 309 308 311 309 306 302 300 302 303 301 300 299 295 293 296 289 288 284 285 277 274 270 269 268 268 267 266 265 267 266 265 263 261 261 263
191 189 193 198 197 208 210 217 220 231 225 231 234 244 247 258 270 282 307 322 324 321 311 290 295 306 306 305 308 311 313 315 316 318 331 339 337 336 345 340 331 344 353 334 323 316 317 313 311 311 308 303 302 304 299 300 301 298 297 294 289 289 288 287 290 296 293 291 286 284 279 273 268 268 265 264 258 258 262 262 259 260 263 265 272
191 203 200 194 197 206 211 217 217 219 219 227 232 240 251 245 249 265 280 296 306 300 306 310 310 304 307 309 309 314 318 319 319 329 341 342 340 346 347 337 339 336 340 314 294 292 299 303 304 305 304 304 302 304 304 304 302 301 301 302 299 298 299 304 303 300 297 297 294 291 286 282 275 265 261 261 263 261 254 254 262 265 268 273 280
194 199 208 207 206 210 212 216 216 216 219 226 225 239 239 242 246 254 268 275 276 288 289 282 290 306 310 311 316 319 321 324 324 338 345 343 344 355 343 329 324 320 319 317 312 304 298 297 301 302 303 300 300 297 296 297 297 298 299 301 304 304 302 302 304 302 302 302 301 302 303 293 284 272 264 257 254 257 259 258 258 262 268 274 277
198 207 207 207 204 212 217 215 220 221 230 227 227 229 225 237 245 253 260 262 272 270 273 291 309 308 311 289 307 318 319 320 328 343 344 340 344 349 290 303 306 309 312 316 318 317 315 311 304 300 300 300 298 295 292 294 296 299 304 304 298 302 298 301 306 309 307 301 301 307 310 306 300 289 277 269 262 258 258 259 262 264 268 272 276
206 209 213 208 208 215 218 225 230 228 229 231 229 220 237 244 248 247 250 260 262 271 285 291 293 290 301 302 321 313 307 313 330 339 340 342 342 342 332 304 291 293 302 305 308 308 307 305 304 301 300 299 299 301 301 300 302 302 306 305 305 300 313 312 309 305 304 304 307 312 312 311 308 306 301 289 276 266 262 260 264 268 270 272 273
221 229 227 225 223 211 216 230 231 226 234 227 228 227 241 241 248 248 251 253 262 271 270 276 279 282 282 293 309 303 303 317 344 334 335 325 312 298 295 298 293 297 295 297 302 306 303 305 306 306 304 306 306 306 306 304 304 303 304 305 306 304 312 308 307 304 305 306 311 311 310 308 309 308 307 304 299 290 280 272 266 267 268 272 269
215 224 232 233 233 241 219 216 217 221 224 223 234 225 238 242 242 247 252 251 262 263 263 272 277 274 280 298 291 289 295 329 327 321 316 311 308 304 294 301 312 313 318 318 318 315 312 309 309 312 312 312 311 309 308 307 306 304 303 307 310 311 310 308 306 307 309 312 311 310 309 309 309 307 306 306 307 306 299 289 279 270 268 266 267
218 220 218 232 232 232 248 239 240 238 234 232 233 232 234 237 239 239 238 246 256 263 268 265 266 273 277 280 293 311 336 333 319 312 305 306 306 303 308 311 320 322 323 322 320 318 315 315 315 314 313 311 311 311 312 313 312 311 309 310 308 310 312 311 310 309 311 313 313 313 312 312 311 311 311 312 313 311 306 302 294 283 270 262 258
216 220 226 225 234 233 229 240 240 240 236 236 235 230 233 240 239 236 242 249 250 255 270 269 268 270 281 294 307 319 334 333 306 299 302 304 304 304 309 315 315 317 318 320 320 319 318 316 314 313 312 313 314 313 315 316 319 320 318 316 315 315 317 319 319 316 317 316 315 314 313 313 313 312 311 311 310 310 311 309 305 299 292 281 269
207 213 217 221 215 221 228 239 240 240 246 242 244 240 239 235 234 237 246 249 250 256 257 271 278 278 284 293 307 319 325 301 289 296 296 299 300 305 311 314 314 311 309 306 306 308 310 310 310 310 311 311 313 314 317 317 320 323 323 321 319 317 318 319 321 321 320 318 316 314 314 314 315 314 314 312 313 313 311 315 315 313 313 317 327
209 215 215 217 220 224 229 229 240 240 240 241 240 237 236 233 238 241 244 251 254 251 252 261 272 286 286 297 307 310 291 289 289 289 290 294 296 300 305 307 311 312 311 308 305 307 309 310 312 310 308 308 311 312 310 310 315 318 323 322 319 315 318 322 323 323 322 319 315 315 316 316 315 316 314 315 317 317 319 322 324 323 328 336 359
205 212 218 224 226 225 240 235 236 244 247 245 247 248 246 243 249 245 242 248 252 252 253 258 266 275 284 290 297 294 292 288 291 292 292 287 290 290 296 301 306 309 307 305 305 307 307 310 310 313 315 316 315 315 315 314 314 316 321 323 323 322 324 324 324 321 319 318 315 314 317 319 319 320 318 319 319 319 321 326 327 333 341 348 2
207 212 218 222 232 234 238 237 238 239 241 242 245 251 247 244 242 241 246 247 248 253 257 259 261 264 269 280 284 284 284 290 287 284 284 286 283 286 284 290 294 298 298 298 303 304 303 305 310 311 314 314 316 316 319 319 317 318 321 323 324 322 320 319 320 322 323 322 321 318 316 317 319 317 320 323 322 327 327 332 336 344 347 355 4
207 209 220 221 229 235 238 237 237 241 243 248 243 243 247 241 235 241 239 242 247 249 254 260 262 263 266 269 273 276 278 279 281 286 282 281 281 282 287 290 295 297 298 299 298 299 303 305 307 307 309 310 314 316 317 319 319 319 322 324 325 328 328 327 327 329 327 326 324 321 319 315 319 322 326 329 331 333 335 338 342 349 353 5 3
210 213 220 225 229 239 246 242 247 252 246 243 241 244 245 244 243 242 242 246 251 255 259 261 258 258 263 266 265 267 272 271 273 274 278 278 279 282 288 293 297 298 302 301 303 301 305 307 306 308 308 312 315 316 316 317 318 320 322 325 327 331 331 331 333 334 335 331 326 325 326 327 327 329 331 335 338 339 345 346 345 351 360 8 20
207 211 222 226 230 236 243 240 239 242 242 244 249 253 249 250 248 245 245 247 247 249 246 253 262 261 258 263 266 268 267 274 277 279 276 277 280 283 287 291 296 298 299 301 303 307 307 308 307 307 306 308 309 311 314 317 319 319 321 324 326 330 333 337 340 341 342 337 332 331 331 334 337 338 340 343 344 348 355 357 0 2 9 20 29
213 217 222 230 236 243 237 235 238 243 244 241 242 248 251 247 249 248 245 243 249 250 247 245 253 257 261 273 274 273 275 278 280 283 283 284 284 286 291 294 296 296 298 298 301 304 307 305 307 307 309 308 309 310 311 312 314 314 317 316 321 330 336 340 341 347 351 344 341 336 333 334 338 345 349 351 348 354 4 6 6 13 18 29 34
224 226 228 233 238 242 238 238 244 241 240 241 238 244 248 244 246 248 246 245 248 254 254 252 253 259 259 256 262 271 276 275 273 275 280 282 287 292 294 296 298 301 298 295 299 303 303 306 307 309 309 307 310 308 310 308 310 308 312 316 327 337 341 346 346 350 352 352 340 341 341 341 344 350 355 357 358 360 5 10 17 16 20 22 25